Time,TemperatureF,DewpointF,PressureIn,WindDirection,WindDirectionDegrees,WindSpeedMPH,WindSpeedGustMPH,Humidity,HourlyPrecipIn,Conditions,Clouds,dailyrainin,SoftwareType,DateUTC
2013-02-01 00:01:00,39.0,34.0,30.19,East,91,0.0,1.0,81,0.00,,,0.00,,2013-02-01 07:01:00,
2013-02-01 00:11:00,38.0,33.0,30.18,East,91,1.0,3.0,83,0.00,,,0.00,,2013-02-01 07:11:00,
2013-02-01 00:21:00,38.0,33.0,30.18,East,91,1.0,3.0,83,0.00,,,0.00,,2013-02-01 07:21:00,
2013-02-01 00:31:00,37.0,32.0,30.17,East,91,0.0,1.0,83,0.00,,,0.00,,2013-02-01 07:31:00,
2013-02-01 00:41:00,37.0,32.0,30.17,East,91,0.0,1.0,83,0.00,,,0.00,,2013-02-01 07:41:00,
2013-02-01 00:52:00,37.0,33.0,30.18,East,91,1.0,3.0,85,0.00,,,0.00,,2013-02-01 07:52:00,
2013-02-01 01:01:00,37.0,33.0,30.17,East,91,0.0,3.0,85,0.00,,,0.00,,2013-02-01 08:01:00,
2013-02-01 01:11:00,37.0,33.0,30.17,East,91,0.0,3.0,85,0.00,,,0.00,,2013-02-01 08:11:00,
2013-02-01 01:21:00,37.0,32.0,30.17,East,89,1.0,4.0,83,0.00,,,0.00,,2013-02-01 08:21:00,
2013-02-01 01:31:00,37.0,32.0,30.16,East,89,0.0,2.0,83,0.00,,,0.00,,2013-02-01 08:31:00,
2013-02-01 01:41:00,37.0,32.0,30.16,East,89,0.0,2.0,83,0.00,,,0.00,,2013-02-01 08:41:00,
2013-02-01 01:52:00,37.0,32.0,30.16,ESE,110,0.0,0.0,83,0.00,,,0.00,,2013-02-01 08:52:00,
2013-02-01 02:01:00,37.0,32.0,30.16,ESE,105,1.0,4.0,83,0.00,,,0.00,,2013-02-01 09:01:00,
2013-02-01 02:11:00,37.0,32.0,30.16,ESE,105,1.0,4.0,83,0.00,,,0.00,,2013-02-01 09:11:00,
2013-02-01 02:21:00,38.0,32.0,30.16,North,357,0.0,2.0,79,0.00,,,0.00,,2013-02-01 09:21:00,
2013-02-01 02:31:00,38.0,32.0,30.16,ENE,72,0.0,4.0,79,0.00,,,0.00,,2013-02-01 09:31:00,
2013-02-01 02:41:00,38.0,32.0,30.16,ENE,72,0.0,4.0,79,0.00,,,0.00,,2013-02-01 09:41:00,
2013-02-01 02:52:00,38.0,32.0,30.17,ENE,72,0.0,1.0,78,0.00,,,0.00,,2013-02-01 09:52:00,
2013-02-01 03:01:00,36.0,31.0,30.17,ENE,71,0.0,2.0,81,0.00,,,0.00,,2013-02-01 10:01:00,
2013-02-01 03:11:00,36.0,31.0,30.17,ENE,71,0.0,2.0,81,0.00,,,0.00,,2013-02-01 10:11:00,
2013-02-01 03:21:00,35.0,30.0,30.17,ENE,70,1.0,1.0,83,0.00,,,0.00,,2013-02-01 10:21:00,
2013-02-01 03:31:00,35.0,30.0,30.17,ENE,70,1.0,0.0,83,0.00,,,0.00,,2013-02-01 10:31:00,
2013-02-01 03:42:00,35.0,30.0,30.17,ENE,70,1.0,0.0,83,0.00,,,0.00,,2013-02-01 10:42:00,
2013-02-01 03:53:00,35.0,31.0,30.17,ENE,71,0.0,0.0,84,0.00,,,0.00,,2013-02-01 10:53:00,
2013-02-01 04:01:00,34.0,30.0,30.18,ENE,71,0.0,1.0,85,0.00,,,0.00,,2013-02-01 11:01:00,
2013-02-01 04:11:00,34.0,30.0,30.18,ENE,71,0.0,1.0,85,0.00,,,0.00,,2013-02-01 11:11:00,
2013-02-01 04:21:00,33.0,29.0,30.19,ENE,70,0.0,2.0,85,0.00,,,0.00,,2013-02-01 11:21:00,
2013-02-01 04:31:00,33.0,29.0,30.18,ENE,70,1.0,4.0,85,0.00,,,0.00,,2013-02-01 11:31:00,
2013-02-01 04:41:00,33.0,29.0,30.18,ENE,70,1.0,4.0,85,0.00,,,0.00,,2013-02-01 11:41:00,
2013-02-01 04:53:00,33.0,29.0,30.18,ENE,71,0.0,2.0,85,0.00,,,0.00,,2013-02-01 11:53:00,
2013-02-01 05:01:00,33.0,29.0,30.18,ENE,71,0.0,1.0,85,0.00,,,0.00,,2013-02-01 12:01:00,
2013-02-01 05:12:00,33.0,29.0,30.18,ENE,71,0.0,1.0,85,0.00,,,0.00,,2013-02-01 12:12:00,
2013-02-01 05:22:00,33.0,29.0,30.18,ENE,71,1.0,2.0,85,0.00,,,0.00,,2013-02-01 12:22:00,
2013-02-01 05:31:00,33.0,29.0,30.18,ENE,71,1.0,4.0,84,0.00,,,0.00,,2013-02-01 12:31:00,
2013-02-01 05:42:00,33.0,29.0,30.18,ENE,71,1.0,4.0,84,0.00,,,0.00,,2013-02-01 12:42:00,
2013-02-01 05:52:00,33.0,29.0,30.18,ENE,70,1.0,4.0,84,0.00,,,0.00,,2013-02-01 12:52:00,
2013-02-01 06:01:00,33.0,29.0,30.19,ENE,71,0.0,0.0,84,0.00,,,0.00,,2013-02-01 13:01:00,
2013-02-01 06:11:00,33.0,29.0,30.19,ENE,71,0.0,0.0,84,0.00,,,0.00,,2013-02-01 13:11:00,
2013-02-01 06:21:00,32.0,28.0,30.18,ENE,71,0.0,2.0,85,0.00,,,0.00,,2013-02-01 13:21:00,
2013-02-01 06:32:00,32.0,28.0,30.19,ENE,70,0.0,1.0,86,0.00,,,0.00,,2013-02-01 13:32:00,
2013-02-01 06:41:00,32.0,28.0,30.19,ENE,70,0.0,1.0,86,0.00,,,0.00,,2013-02-01 13:41:00,
2013-02-01 06:53:00,32.0,28.0,30.19,ENE,70,1.0,4.0,86,0.00,,,0.00,,2013-02-01 13:53:00,
2013-02-01 07:02:00,32.0,28.0,30.18,ENE,70,0.0,0.0,86,0.00,,,0.00,,2013-02-01 14:02:00,
2013-02-01 07:11:00,31.0,28.0,30.19,ENE,70,0.0,0.0,87,0.00,,,0.00,,2013-02-01 14:11:00,
2013-02-01 07:21:00,31.0,28.0,30.19,ENE,70,0.0,0.0,87,0.00,,,0.00,,2013-02-01 14:21:00,
2013-02-01 07:31:00,31.0,28.0,30.19,ENE,70,0.0,1.0,87,0.00,,,0.00,,2013-02-01 14:31:00,
2013-02-01 07:41:00,31.0,28.0,30.19,ENE,70,0.0,1.0,87,0.00,,,0.00,,2013-02-01 14:41:00,
2013-02-01 07:52:00,32.0,29.0,30.19,ENE,70,0.0,0.0,88,0.00,,,0.00,,2013-02-01 14:52:00,
2013-02-01 08:01:00,32.0,29.0,30.20,ENE,71,0.0,1.0,87,0.00,,,0.00,,2013-02-01 15:01:00,
2013-02-01 08:11:00,35.0,31.0,30.21,ENE,71,0.0,0.0,85,0.00,,,0.00,,2013-02-01 15:11:00,
2013-02-01 08:21:00,35.0,31.0,30.21,ENE,71,0.0,0.0,85,0.00,,,0.00,,2013-02-01 15:21:00,
2013-02-01 08:31:00,38.0,32.0,30.22,ENE,71,0.0,1.0,80,0.00,,,0.00,,2013-02-01 15:31:00,
2013-02-01 08:41:00,38.0,32.0,30.22,ENE,71,0.0,1.0,80,0.00,,,0.00,,2013-02-01 15:41:00,
2013-02-01 08:51:00,42.0,32.0,30.22,ENE,70,0.0,2.0,68,0.00,,,0.00,,2013-02-01 15:51:00,
2013-02-01 09:01:00,45.0,33.0,30.22,ENE,70,0.0,0.0,62,0.00,,,0.00,,2013-02-01 16:01:00,
2013-02-01 09:11:00,48.0,33.0,30.23,ENE,72,0.0,4.0,55,0.00,,,0.00,,2013-02-01 16:11:00,
2013-02-01 09:21:00,48.0,33.0,30.23,ENE,72,0.0,4.0,55,0.00,,,0.00,,2013-02-01 16:21:00,
2013-02-01 09:32:00,49.0,31.0,30.24,West,264,2.0,4.0,49,0.00,,,0.00,,2013-02-01 16:32:00,
2013-02-01 09:42:00,50.0,30.0,30.24,West,278,3.0,5.0,46,0.00,,,0.00,,2013-02-01 16:42:00,
2013-02-01 09:52:00,50.0,30.0,30.24,West,278,3.0,5.0,46,0.00,,,0.00,,2013-02-01 16:52:00,
2013-02-01 10:01:00,52.0,31.0,30.23,West,263,3.0,5.0,44,0.00,,,0.00,,2013-02-01 17:01:00,
2013-02-01 10:11:00,54.0,29.0,30.22,West,265,1.0,4.0,38,0.00,,,0.00,,2013-02-01 17:11:00,
2013-02-01 10:21:00,54.0,29.0,30.22,West,265,1.0,4.0,38,0.00,,,0.00,,2013-02-01 17:21:00,
2013-02-01 10:31:00,56.0,29.0,30.22,West,261,1.0,3.0,35,0.00,,,0.00,,2013-02-01 17:31:00,
2013-02-01 10:41:00,56.0,29.0,30.22,West,261,1.0,3.0,35,0.00,,,0.00,,2013-02-01 17:41:00,
2013-02-01 10:53:00,59.0,29.0,30.21,West,259,0.0,1.0,32,0.00,,,0.00,,2013-02-01 17:53:00,
2013-02-01 11:02:00,59.0,28.0,30.22,SSW,193,0.0,2.0,31,0.00,,,0.00,,2013-02-01 18:02:00,
2013-02-01 11:11:00,59.0,28.0,30.22,SSW,193,0.0,2.0,31,0.00,,,0.00,,2013-02-01 18:11:00,
2013-02-01 11:21:00,62.0,30.0,30.22,SSW,209,1.0,4.0,30,0.00,,,0.00,,2013-02-01 18:21:00,
2013-02-01 11:31:00,63.0,29.0,30.22,WSW,238,2.0,5.0,28,0.00,,,0.00,,2013-02-01 18:31:00,
2013-02-01 11:41:00,63.0,29.0,30.22,WSW,238,2.0,5.0,28,0.00,,,0.00,,2013-02-01 18:41:00,
2013-02-01 11:53:00,64.0,30.0,30.21,SW,230,2.0,5.0,28,0.00,,,0.00,,2013-02-01 18:53:00,
2013-02-01 12:01:00,65.0,28.0,30.21,SW,222,1.0,5.0,25,0.00,,,0.00,,2013-02-01 19:01:00,
2013-02-01 12:11:00,65.0,28.0,30.21,SW,222,1.0,5.0,25,0.00,,,0.00,,2013-02-01 19:11:00,
2013-02-01 12:21:00,66.0,27.0,30.20,SW,229,2.0,5.0,23,0.00,,,0.00,,2013-02-01 19:21:00,
2013-02-01 12:31:00,67.0,28.0,30.19,SW,232,1.0,5.0,23,0.00,,,0.00,,2013-02-01 19:31:00,
2013-02-01 12:41:00,67.0,28.0,30.19,SW,232,1.0,5.0,23,0.00,,,0.00,,2013-02-01 19:41:00,
2013-02-01 12:52:00,68.0,28.0,30.18,SW,230,0.0,3.0,22,0.00,,,0.00,,2013-02-01 19:52:00,
2013-02-01 13:01:00,68.0,25.0,30.17,South,178,0.0,2.0,20,0.00,,,0.00,,2013-02-01 20:01:00,
2013-02-01 13:11:00,70.0,25.0,30.16,WSW,241,1.0,5.0,18,0.00,,,0.00,,2013-02-01 20:11:00,
2013-02-01 13:21:00,70.0,25.0,30.16,WSW,241,1.0,5.0,18,0.00,,,0.00,,2013-02-01 20:21:00,
2013-02-01 13:31:00,70.0,23.0,30.15,SSW,195,2.0,6.0,17,0.00,,,0.00,,2013-02-01 20:31:00,
2013-02-01 13:41:00,71.0,25.0,30.14,WSW,249,3.0,7.0,18,0.00,,,0.00,,2013-02-01 20:41:00,
2013-02-01 13:52:00,71.0,25.0,30.14,WSW,249,3.0,7.0,18,0.00,,,0.00,,2013-02-01 20:52:00,
2013-02-01 14:01:00,70.0,23.0,30.14,SW,232,1.0,7.0,17,0.00,,,0.00,,2013-02-01 21:01:00,
2013-02-01 14:11:00,70.0,23.0,30.14,SW,232,1.0,7.0,17,0.00,,,0.00,,2013-02-01 21:11:00,
2013-02-01 14:21:00,72.0,26.0,30.13,WNW,284,2.0,5.0,18,0.00,,,0.00,,2013-02-01 21:21:00,
2013-02-01 14:31:00,71.0,24.0,30.13,WSW,251,3.0,7.0,17,0.00,,,0.00,,2013-02-01 21:31:00,
2013-02-01 14:41:00,71.0,24.0,30.13,WSW,251,3.0,7.0,17,0.00,,,0.00,,2013-02-01 21:41:00,
2013-02-01 14:52:00,72.0,25.0,30.14,WSW,251,4.0,7.0,17,0.00,,,0.00,,2013-02-01 21:52:00,
2013-02-01 15:01:00,72.0,25.0,30.14,WNW,301,4.0,8.0,17,0.00,,,0.00,,2013-02-01 22:01:00,
2013-02-01 15:11:00,72.0,25.0,30.14,WNW,301,4.0,8.0,17,0.00,,,0.00,,2013-02-01 22:11:00,
2013-02-01 15:21:00,72.0,25.0,30.14,SSW,211,4.0,8.0,17,0.00,,,0.00,,2013-02-01 22:21:00,
2013-02-01 15:32:00,72.0,25.0,30.14,SW,228,4.0,7.0,17,0.00,,,0.00,,2013-02-01 22:32:00,
2013-02-01 15:41:00,72.0,25.0,30.14,SW,228,4.0,7.0,17,0.00,,,0.00,,2013-02-01 22:41:00,
2013-02-01 15:52:00,72.0,25.0,30.14,SW,228,4.0,7.0,17,0.00,,,0.00,,2013-02-01 22:52:00,
2013-02-01 16:01:00,72.0,23.0,30.12,SW,234,3.0,7.0,16,0.00,,,0.00,,2013-02-01 23:01:00,
2013-02-01 16:11:00,72.0,23.0,30.12,SW,234,3.0,7.0,16,0.00,,,0.00,,2013-02-01 23:11:00,
2013-02-01 16:21:00,72.0,25.0,30.13,SW,230,3.0,9.0,17,0.00,,,0.00,,2013-02-01 23:21:00,
2013-02-01 16:31:00,71.0,25.0,30.13,SSW,212,3.0,7.0,18,0.00,,,0.00,,2013-02-01 23:31:00,
2013-02-01 16:41:00,71.0,25.0,30.13,SSW,212,3.0,7.0,18,0.00,,,0.00,,2013-02-01 23:41:00,
2013-02-01 16:52:00,70.0,26.0,30.13,West,271,4.0,7.0,19,0.00,,,0.00,,2013-02-01 23:52:00,
2013-02-01 17:01:00,70.0,27.0,30.13,West,278,3.0,7.0,20,0.00,,,0.00,,2013-02-02 00:01:00,
2013-02-01 17:11:00,70.0,27.0,30.13,West,278,3.0,7.0,20,0.00,,,0.00,,2013-02-02 00:11:00,
2013-02-01 17:21:00,68.0,29.0,30.14,West,279,3.0,6.0,23,0.00,,,0.00,,2013-02-02 00:21:00,
2013-02-01 17:31:00,67.0,31.0,30.14,West,263,3.0,6.0,26,0.00,,,0.00,,2013-02-02 00:31:00,
2013-02-01 17:41:00,67.0,31.0,30.14,West,263,3.0,6.0,26,0.00,,,0.00,,2013-02-02 00:41:00,
2013-02-01 17:52:00,66.0,33.0,30.14,West,272,1.0,5.0,29,0.00,,,0.00,,2013-02-02 00:52:00,
2013-02-01 18:01:00,64.0,34.0,30.14,West,272,1.0,3.0,33,0.00,,,0.00,,2013-02-02 01:01:00,
2013-02-01 18:11:00,64.0,34.0,30.14,West,272,1.0,3.0,33,0.00,,,0.00,,2013-02-02 01:11:00,
2013-02-01 18:21:00,61.0,33.0,30.14,West,272,0.0,2.0,35,0.00,,,0.00,,2013-02-02 01:21:00,
2013-02-01 18:31:00,58.0,34.0,30.15,West,272,0.0,0.0,41,0.00,,,0.00,,2013-02-02 01:31:00,
2013-02-01 18:41:00,58.0,34.0,30.15,West,272,0.0,0.0,41,0.00,,,0.00,,2013-02-02 01:41:00,
2013-02-01 18:52:00,57.0,36.0,30.15,West,272,0.0,0.0,45,0.00,,,0.00,,2013-02-02 01:52:00,
2013-02-01 19:01:00,55.0,36.0,30.16,West,273,0.0,1.0,48,0.00,,,0.00,,2013-02-02 02:01:00,
2013-02-01 19:11:00,55.0,36.0,30.16,West,273,0.0,1.0,48,0.00,,,0.00,,2013-02-02 02:11:00,
2013-02-01 19:21:00,54.0,36.0,30.16,West,273,0.0,1.0,51,0.00,,,0.00,,2013-02-02 02:21:00,
2013-02-01 19:31:00,54.0,36.0,30.17,West,273,0.0,1.0,50,0.00,,,0.00,,2013-02-02 02:31:00,
2013-02-01 19:41:00,54.0,36.0,30.17,West,273,0.0,1.0,50,0.00,,,0.00,,2013-02-02 02:41:00,
2013-02-01 19:52:00,54.0,35.0,30.18,NE,43,1.0,2.0,49,0.00,,,0.00,,2013-02-02 02:52:00,
2013-02-01 20:01:00,53.0,34.0,30.18,NE,43,0.0,1.0,49,0.00,,,0.00,,2013-02-02 03:01:00,
2013-02-01 20:11:00,52.0,34.0,30.19,NE,43,0.0,2.0,50,0.00,,,0.00,,2013-02-02 03:11:00,
2013-02-01 20:21:00,52.0,34.0,30.19,NE,43,0.0,2.0,50,0.00,,,0.00,,2013-02-02 03:21:00,
2013-02-01 20:31:00,52.0,33.0,30.19,NE,43,0.0,2.0,49,0.00,,,0.00,,2013-02-02 03:31:00,
2013-02-01 20:42:00,51.0,34.0,30.19,NE,43,0.0,1.0,51,0.00,,,0.00,,2013-02-02 03:42:00,
2013-02-01 20:52:00,51.0,34.0,30.19,NE,43,0.0,1.0,51,0.00,,,0.00,,2013-02-02 03:52:00,
2013-02-01 21:01:00,50.0,35.0,30.20,NE,43,0.0,1.0,56,0.00,,,0.00,,2013-02-02 04:01:00,
2013-02-01 21:11:00,50.0,35.0,30.20,NE,43,0.0,1.0,56,0.00,,,0.00,,2013-02-02 04:11:00,
2013-02-01 21:21:00,48.0,35.0,30.21,NE,43,0.0,2.0,60,0.00,,,0.00,,2013-02-02 04:21:00,
2013-02-01 21:32:00,48.0,35.0,30.21,NE,43,1.0,2.0,60,0.00,,,0.00,,2013-02-02 04:32:00,
2013-02-01 21:41:00,48.0,35.0,30.21,NE,43,1.0,2.0,60,0.00,,,0.00,,2013-02-02 04:41:00,
2013-02-01 21:52:00,47.0,34.0,30.21,NE,43,0.0,2.0,61,0.00,,,0.00,,2013-02-02 04:52:00,
2013-02-01 22:02:00,46.0,35.0,30.21,NE,43,0.0,0.0,65,0.00,,,0.00,,2013-02-02 05:02:00,
2013-02-01 22:11:00,46.0,35.0,30.21,NE,43,0.0,0.0,65,0.00,,,0.00,,2013-02-02 05:11:00,
2013-02-01 22:22:00,45.0,35.0,30.22,NE,43,1.0,2.0,69,0.00,,,0.00,,2013-02-02 05:22:00,
2013-02-01 22:32:00,44.0,35.0,30.22,NE,43,0.0,0.0,70,0.00,,,0.00,,2013-02-02 05:32:00,
2013-02-01 22:41:00,44.0,35.0,30.22,NE,43,0.0,0.0,70,0.00,,,0.00,,2013-02-02 05:41:00,
2013-02-01 22:52:00,44.0,35.0,30.21,NE,43,0.0,0.0,71,0.00,,,0.00,,2013-02-02 05:52:00,
2013-02-01 23:01:00,43.0,35.0,30.21,NE,43,0.0,1.0,73,0.00,,,0.00,,2013-02-02 06:01:00,
2013-02-01 23:12:00,43.0,35.0,30.21,NE,43,0.0,1.0,73,0.00,,,0.00,,2013-02-02 06:12:00,
2013-02-01 23:21:00,43.0,35.0,30.20,NE,43,0.0,1.0,73,0.00,,,0.00,,2013-02-02 06:21:00,
2013-02-01 23:31:00,43.0,35.0,30.20,NE,43,0.0,1.0,72,0.00,,,0.00,,2013-02-02 06:31:00,
2013-02-01 23:41:00,43.0,35.0,30.20,NE,43,0.0,1.0,72,0.00,,,0.00,,2013-02-02 06:41:00,
2013-02-01 23:52:00,42.0,34.0,30.21,NE,43,1.0,2.0,73,0.00,,,0.00,,2013-02-02 06:52:00,